Location: Unspecified
(0.0000°N, 0.0000°E)
Time: 00:33:05
(UTC+00:00)

Vanguard 2 Rocket - Visible Passes

Search period start: 28 April 2017 00:00
Search period end: 08 May 2017 00:00
Orbit: 554 x 3328 km, 32.9° (Epoch: 26 April)

Date Brightness Start Highest point End Pass type
(mag) Time Alt. Az. Time Alt. Az. Time Alt. Az.
02 May 9.3 20:29:16 10° N 20:30:51 12° N 20:30:51 12° N visible
03 May 9.3 19:30:20 10° N 19:31:39 10° NNE 19:32:51 10° NNE visible
04 May 9.0 20:41:50 10° NNW 20:44:53 19° N 20:44:53 19° N visible
05 May 8.8 19:41:41 10° NNW 19:47:27 19° NNE 19:49:00 17° NE visible
06 May 9.3 18:41:01 10° NNW 18:46:51 16° NNE 18:51:16 10° NE visible
06 May 8.9 20:55:34 10° NW 20:58:59 24° NNW 20:58:59 24° NNW visible
07 May 8.1 19:54:58 10° NW 20:02:57 33° NNE 20:03:08 33° NNE visible
